SWARM B

Last updated on Wed Sep 17 2025 00:03:34 GMT+0000 (Coordinated Universal Time)

1 39451U 13067A 25259.54099134 .00004325 00000+0 16741-3 0 9992 2 39451 87.7389 65.2625 0002784 80.8647 279.2916 15.25919188641473
UTC large
Height (km)
Speed (km/s)
/
Latitude / Longitude
Inclination (degrees)
Orbital Period (minutes)
Azimuth
Elevation
Range (km)
Doppler Factor

Next 0 passes for location: London (51.5072 / 0.1276)

Sorry there are no passes over London.